This is the latest recevied weather packets stored in our database for station/object N4QD-13. If no packets are shown the sender has not sent any weather packets the latest 1 day(s).
| Time | Temp. | Humidity | Pressure | Rain* | Wind** | Luminosity | Snow |
|---|---|---|---|---|---|---|---|
| 1777989913 | 22.78° C | 54% | 1014.1 hPa | 0 mm | 2.24 m/s, 75° | 534 W/m² | - |
| 1777989610 | 22.22° C | 55% | 1014.4 hPa | 0 mm | 1.34 m/s, 45° | 531 W/m² | - |
| 1777989306 | 22.22° C | 54% | 1014.3 hPa | 0 mm | 0.89 m/s, 48° | 525 W/m² | - |
| 1777989003 | 22.22° C | 54% | 1014.2 hPa | 0 mm | 1.34 m/s, 46° | 530 W/m² | - |
| 1777988699 | 22.22° C | 54% | 1014.2 hPa | 0 mm | 2.24 m/s, 335° | 495 W/m² | - |
| 1777988395 | 22.22° C | 54% | 1014.3 hPa | 0 mm | 2.24 m/s, 29° | 494 W/m² | - |
| 1777988093 | 21.67° C | 55% | 1014.3 hPa | 0 mm | 2.24 m/s, 354° | 482 W/m² | - |
| 1777987788 | 21.67° C | 55% | 1014.5 hPa | 0 mm | 3.58 m/s, 314° | 468 W/m² | - |
| 1777987485 | 21.67° C | 57% | 1014.5 hPa | 0 mm | 0.89 m/s, 343° | 468 W/m² | - |
| 1777987183 | 21.67° C | 58% | 1014.5 hPa | 0 mm | 0.45 m/s, 318° | 460 W/m² | - |
| 1777986879 | 21.11° C | 62% | 1014.5 hPa | 0 mm | 1.34 m/s, 305° | 437 W/m² | - |
| 1777986578 | 21.11° C | 63% | 1014.6 hPa | 0 mm | 0.45 m/s, 74° | 429 W/m² | - |
| 1777986275 | 20.56° C | 63% | 1014.6 hPa | 0 mm | 0.45 m/s, 47° | 413 W/m² | - |
| 1777985972 | 20° C | 63% | 1014.7 hPa | 0 mm | 0.45 m/s, 352° | 386 W/m² | - |
| 1777985670 | 19.44° C | 67% | 1014.7 hPa | 0 mm | 0 m/s | 351 W/m² | - |
| 1777985366 | 18.89° C | 65% | 1014.7 hPa | 0 mm | 0 m/s | 347 W/m² | - |
| 1777985063 | 18.89° C | 65% | 1014.6 hPa | 0 mm | 0.89 m/s, 359° | 344 W/m² | - |
| 1777984759 | 18.89° C | 66% | 1014.6 hPa | 0 mm | 0.45 m/s, 344° | 291 W/m² | - |
| 1777984456 | 18.33° C | 67% | 1014.7 hPa | 0 mm | 0 m/s | 323 W/m² | - |
| 1777984152 | 18.89° C | 66% | 1014.6 hPa | 0 mm | 0.45 m/s, 350° | 188 W/m² | - |
| 1777983849 | 18.33° C | 68% | 1014.8 hPa | 0 mm | 0.45 m/s, 345° | 192 W/m² | - |
| 1777983546 | 18.33° C | 69% | 1014.7 hPa | 0 mm | 0 m/s | 297 W/m² | - |
| 1777983243 | 17.78° C | 71% | 1014.7 hPa | 0 mm | 0 m/s | 276 W/m² | - |
| 1777982939 | 17.22° C | 70% | 1014.9 hPa | 0 mm | 0.45 m/s, 292° | 115 W/m² | - |
| 1777982635 | 16.67° C | 73% | 1014.8 hPa | 0 mm | 0 m/s | 233 W/m² | - |
* Rain latest hour (hover to see other rain measurements)
** Current wind speed in m/s (hover to see current wind gust speed)